Location: Caltech
(34.1382°N, 118.1253°W)
Time: 07:26:41
(UTC-07:00)

USA 129 - Visible Passes

Search period start: 23 April 2014 00:00
Search period end: 03 May 2014 00:00
Orbit: 241 x 677 km, 97.5° (Epoch: 20 April)

Date Brightness Start Highest point End Pass type
(mag) Time Alt. Az. Time Alt. Az. Time Alt. Az.
23 Apr 4.8 20:59:15 25° ENE 20:59:37 25° ENE 21:03:25 10° NNE visible
23 Apr 5.6 22:33:03 26° WNW 22:33:03 26° WNW 22:36:14 10° NW visible
24 Apr 5.7 20:26:18 10° E 20:27:29 11° ENE 20:28:57 10° NE visible
24 Apr 4.1 22:00:06 62° WNW 22:00:06 62° WNW 22:04:18 10° NNW visible
25 Apr 3.9 21:27:02 51° ENE 21:27:05 51° ENE 21:31:37 10° N visible
25 Apr 6.4 23:00:50 13° W 23:00:50 13° W 23:02:26 10° WNW visible
26 Apr 5.0 20:53:52 22° E 20:54:35 22° ENE 20:58:10 10° NNE visible
26 Apr 5.3 22:27:39 31° W 22:27:39 31° W 22:31:18 10° NNW visible
27 Apr 3.7 21:54:21 77° WNW 21:54:21 77° WNW 21:58:52 10° NNW visible
28 Apr 4.1 21:20:57 42° E 21:21:19 43° ENE 21:25:42 10° N visible
28 Apr 6.2 22:54:43 16° W 22:54:43 16° W 22:57:06 10° NW visible
29 Apr 5.2 20:47:26 18° E 20:48:28 19° ENE 20:51:41 10° NNE visible
29 Apr 4.9 22:21:11 38° W 22:21:11 38° W 22:25:13 10° NNW visible
30 Apr 3.5 21:47:33 84° SE 21:47:40 87° ENE 21:52:17 10° N visible
01 May 4.4 21:13:48 34° E 21:14:27 35° ENE 21:18:36 10° N visible
01 May 5.9 22:47:32 19° W 22:47:32 19° W 22:50:31 10° NW visible
02 May 5.5 20:39:56 14° E 20:41:15 16° ENE 20:43:54 10° NNE visible
02 May 4.5 22:13:40 46° W 22:13:40 46° W 22:17:59 10° NNW visible
